Lid_Strength_Index
2 2 3 3 3 4 5 7 7 7 9 11 11 12 12 12 12 10 10 5 3 1 1 -0 -0 -1 -1 -1 -1 -1 -0 0 1 1 1 1 -0 1 0 -0 -0 -0 -0
3 2 3 4 4 4 5 7 7 7 10 11 11 12 12 12 12 10 10 8 3 1 0 0 -0 -1 -1 -1 -1 -1 -2 -0 1 2 2 2 1 2 1 1 2 2 1
2 2 3 4 4 5 6 7 8 10 10 11 12 12 12 12 12 11 9 9 7 4 1 1 0 -0 -1 -1 -1 -2 -1 1 2 2 3 2 2 2 1 2 3 2 2
2 3 4 4 4 5 6 7 8 10 11 12 13 13 13 12 12 12 11 9 8 7 5 2 2 1 -1 -1 -1 -0 0 0 2 2 3 3 3 2 3 3 3 3 3
3 3 4 4 5 6 6 7 9 9 11 12 12 13 13 13 12 11 12 11 9 8 8 6 4 5 3 0 -1 -1 -1 -0 0 2 3 3 3 3 3 3 3 3 3
3 3 4 4 5 6 7 8 9 11 11 12 12 13 14 13 13 13 13 12 11 11 10 9 9 8 5 3 0 -0 -1 -1 1 2 2 3 3 3 4 3 3 3 3
4 4 5 5 6 6 7 8 10 10 11 12 14 14 14 13 13 13 13 13 13 12 12 11 10 10 9 4 2 0 -0 -1 1 2 2 3 3 3 4 4 3 3 3
10 7 7 7 7 8 8 9 10 11 11 12 13 14 15 14 14 14 14 13 13 13 13 13 12 11 11 9 7 2 -0 -0 0 1 2 3 3 3 3 3 3 3 3
12 12 11 10 9 9 9 9 10 11 11 12 13 12 14 16 16 15 15 14 14 14 14 14 13 12 12 11 8 6 2 1 -0 0 1 3 3 4 4 3 3 3 3
14 13 13 13 12 11 10 10 10 11 12 12 12 12 13 14 15 15 15 15 15 14 14 14 14 13 13 12 9 7 6 3 1 0 1 2 3 3 4 4 3 3 4
14 14 14 14 14 13 13 13 12 11 11 12 12 13 14 14 15 15 16 16 16 15 14 14 14 14 13 13 12 9 6 4 2 2 2 4 4 4 4 4 4 3 3
15 14 14 15 15 15 14 14 14 13 13 12 12 13 13 14 14 15 16 16 16 16 16 15 15 14 14 14 12 9 7 5 3 3 4 4 5 5 5 4 4 4 3
16 16 14 14 14 15 15 15 15 15 15 15 14 13 12 12 13 13 14 14 15 17 17 17 16 15 14 14 13 10 9 6 4 4 4 5 5 6 6 5 5 4 4
15 15 15 14 15 15 15 15 16 16 16 16 16 16 15 14 13 13 13 14 15 14 14 17 17 16 15 14 13 11 11 8 6 4 5 5 6 6 6 6 5 5 5
14 15 15 15 15 15 15 15 16 16 16 16 16 15 15 14 14 14 14 14 14 16 15 13 17 16 15 15 14 13 13 11 8 6 5 6 6 7 7 6 6 5 5
15 15 15 15 15 15 15 15 15 15 16 16 15 15 15 15 14 13 14 14 15 15 16 15 13 16 15 15 14 14 13 11 10 7 7 6 7 7 7 7 6 6 6
14 14 14 15 15 15 15 16 16 16 16 15 15 16 15 14 14 14 14 14 13 14 16 15 14 15 16 16 15 14 14 13 13 9 8 7 7 7 7 7 7 7 7
14 14 14 14 15 15 15 16 16 16 16 16 15 15 15 14 15 14 14 14 14 13 14 16 14 14 16 16 15 15 14 14 14 12 9 8 7 8 8 8 8 7 7
14 15 14 15 15 15 15 15 16 16 16 15 15 15 15 15 15 14 14 14 13 12 13 14 14 13 13 15 16 15 15 14 14 12 10 9 8 8 8 8 8 8 8
15 15 15 15 15 15 15 15 15 15 15 15 15 15 15 15 15 14 14 14 13 13 13 13 14 14 13 13 14 14 15 15 15 15 13 11 10 9 8 8 8 9 9
15 15 15 15 15 15 14 14 14 15 15 15 15 15 15 15 13 13 14 14 14 14 14 14 14 14 14 16 14 13 13 13 14 14 15 15 13 12 11 9 10 10 9
14 14 15 15 15 14 12 12 12 14 14 15 16 15 15 15 14 13 13 12 13 14 14 13 13 14 13 13 13 12 12 13 15 14 14 15 14 14 13 12 10 9 9
15 16 16 16 16 16 14 12 13 14 15 16 16 16 16 15 16 16 14 13 13 13 12 12 12 12 12 11 11 13 12 12 12 13 13 15 14 15 13 13 10 9 9
17 17 17 17 17 17 14 14 14 15 16 16 17 17 17 17 16 16 16 16 15 15 14 13 13 12 11 10 9 10 11 11 11 11 11 15 14 15 14 13 11 10 9
19 19 18 18 19 19 16 15 15 16 17 17 17 17 17 17 15 14 15 16 16 15 12 11 11 10 10 9 8 9 10 11 12 12 13 12 13 14 15 14 14 11 10
19 19 19 19 20 21 17 15 15 16 18 17 16 16 14 15 13 12 14 15 17 16 15 15 14 12 11 11 9 8 9 10 11 12 11 13 12 15 17 15 14 14 12